{"data":{"norad_id":66679,"intl_designator":"2025-276P","name":"LILIUM-2","alt_names":[],"object_type":"PAYLOAD","status":"ACTIVE","operator":null,"country":"ROC","launch_date":"2025-11-28","launch_site_code":"AFWTR","launch_vehicle":null,"mission":null,"orbit_class":"UNKNOWN","rcs_meters":null,"size_class":null,"mass_kg":null,"dimensions":null,"purposes":[],"wikipedia_slug":null,"has_3d_model":false,"image_url":null,"decayed_at":null,"tle_current":{"epoch":"2026-09-20T22:36:08.773344Z","epoch_age_seconds":82804,"freshness":"FRESH","line1":"1 66679U 25276P   26263.94176821  .00001910  00000+0  96164-4 0  9993","line2":"2 66679  97.4070 335.0460 0006964  44.9917 315.1880 15.18378637 44927","mean_motion":15.18378637,"eccentricity":0.0006964,"inclination_deg":97.407,"raan_deg":335.046,"arg_perigee_deg":44.9917,"mean_anomaly_deg":315.188,"bstar":9.6164e-5,"rev_number":4492,"period_min":94.838004494395,"perigee_km":505.94291775303,"apogee_km":515.53774610094,"semimajor_km":6888.877331927,"source":"CELESTRAK","updated_at":"2026-09-21T09:00:16.123085Z"}}}